[[{"header":{"parameterUnit":"m.s-1","parameterCategory":1,"la1":30.2991,"la2":30.254,"lo1":-89.0895,"lo2":-89.0444,"dy":0.0017,"dx":0.0017,"nx":28,"ny":28,"refTime":"2024-12-05T03:00:00:Z","depth":0,"parameterNumber":2,"parameterNumberName":"U-component_of_WINDS"},"data":[0,0,0,0,0,0,0,0,0,0,0,0,0,0,0,0,0,0,0,0,0,0,0,0,0,0,0,0,0,0,0,0,0,0,0,0,0,0,0,0,0,0,0,0,0,0,0,0,0,0,0,0,0,0,0,0,0,0,-1.1657,-1.1657,0,-1.1673,-1.1673,-1.1673,-1.1648,-1.1647,-1.1646,-1.1645,-1.1663,-1.1664,-1.1665,0,0,0,0,0,0,0,0,0,0,0,0,0,-1.1603,-1.1605,-1.1657,-1.1657,-1.1657,-1.1673,-1.1673,-1.1673,-1.1648,-1.1647,-1.1646,-1.1645,-1.1662,-1.1664,-1.1666,0,0,0,0,0,0,0,0,0,0,0,0,0,-1.1624,-1.1605,-1.1657,-1.1646,-1.1645,-1.1673,-1.1673,-1.1673,-1.1648,-1.1647,-1.1645,-1.1644,-1.1662,-1.1664,-1.1666,-1.1705,0,0,-1.1672,-1.1673,0,0,0,0,0,0,0,0,-1.1623,-1.1626,-1.1647,-1.1647,-1.1646,-1.1657,-1.1661,-1.1684,-1.1648,-1.1647,-1.1645,-1.1644,-1.1662,-1.1664,-1.167,-1.1705,-1.1706,-1.1672,-1.1673,-1.1674,-1.1675,0,0,0,0,0,0,0,-1.1621,-1.1625,-1.1663,-1.1648,-1.1647,-1.1641,-1.1642,-1.1665,-1.1662,-1.1647,-1.1645,-1.1648,-1.1661,-1.1668,-1.167,-1.1706,-1.1672,-1.1674,-1.1675,-1.1676,-1.1774,-1.1775,0,0,0,0,0,0,-1.1621,-1.1624,-1.1663,-1.1664,-1.1631,-1.1643,-1.1644,-1.1655,-1.1662,-1.1661,-1.1649,-1.1646,-1.1665,-1.1668,-1.1671,-1.1716,-1.1674,-1.1676,-1.1677,-1.1772,-1.1774,-1.1776,0,0,0,0,0,0,-1.162,-1.1625,-1.1662,-1.1643,-1.1648,-1.1645,-1.1657,-1.1656,-1.1663,-1.1663,-1.1662,-1.1656,-1.1665,-1.1668,-1.1696,-1.1717,-1.1677,-1.1678,-1.1771,-1.1773,-1.1775,-1.1808,0,0,0,0,0,0,-1.1619,-1.1625,-1.1639,-1.1644,-1.1649,-1.1687,-1.1658,-1.1657,-1.1666,-1.1663,-1.167,-1.1669,-1.1664,-1.1693,-1.1698,-1.1719,-1.168,-1.1769,-1.1772,-1.1774,-1.1805,-1.1811,-1.1816,0,0,0,0,0,-1.1617,-1.1648,-1.164,-1.1645,-1.1667,-1.1688,-1.1691,-1.1684,-1.1668,-1.1682,-1.1682,-1.1669,-1.1713,-1.1696,-1.1702,-1.1723,-1.1768,-1.1771,-1.1774,-1.1803,-1.181,-1.1816,0,0,0,0,0,0,-1.1647,-1.1649,-1.164,-1.1674,-1.1681,-1.1684,-1.1703,-1.1692,-1.1704,-1.1701,-1.1691,-1.1693,-1.1723,-1.1726,-1.1707,-1.176,-1.1738,-1.1742,-1.1758,-1.1765,-1.177,-1.1769,-1.1682,0,0,0,0,0,-1.1658,-1.1675,-1.1675,-1.1705,-1.1709,-1.1705,-1.1714,-1.1708,-1.1715,-1.1718,-1.172,-1.1728,-1.1744,-1.1754,-1.1769,-1.1805,-1.1806,-1.1822,-1.1828,-1.1832,-1.1837,-1.1856,-1.1863,-1.1786,-1.1786,-1.1786,0,0,-1.168,-1.1683,-1.1694,-1.1711,-1.1716,-1.1734,-1.1708,-1.1728,-1.1742,-1.1721,-1.1748,-1.175,-1.1758,-1.179,-1.1805,-1.1793,-1.1858,-1.1836,-1.184,-1.1842,-1.186,-1.1867,-1.1873,-1.1788,-1.1788,-1.1788,0,0,-1.1729,-1.1733,-1.1759,-1.1764,-1.1771,-1.1768,-1.1774,-1.1778,-1.1779,-1.1805,-1.179,-1.1806,-1.1833,-1.1839,-1.1846,-1.1896,-1.1885,-1.1901,-1.193,-1.1949,-1.1955,-1.1961,-1.1979,-1.1986,-1.1905,-1.1905,-1.1905,0,-1.1756,-1.1783,-1.1773,-1.1794,-1.1802,-1.1783,-1.1809,-1.1814,-1.1826,-1.1832,-1.1819,-1.1852,-1.1856,-1.189,-1.1902,-1.1908,-1.1915,-1.1901,-1.1955,-1.196,-1.1965,-1.1983,-1.1989,-1.1907,-1.1907,-1.1907,-1.1907,0,-1.1815,-1.1833,-1.1853,-1.1864,-1.1874,-1.1897,-1.1891,-1.1902,-1.1895,-1.1893,-1.192,-1.1924,-1.1939,-1.1946,-1.1939,-1.1978,-1.1971,-1.1957,-1.1934,-1.1975,-1.1991,-1.1997,-1.191,-1.1909,-1.1909,-1.1908,0,0,-1.1886,-1.189,-1.1898,-1.1903,-1.1909,-1.1923,-1.1945,-1.1959,-1.1969,-1.1977,-1.1995,-1.2018,-1.2005,-1.2012,-1.2005,-1.2022,-1.2062,-1.2006,-1.2006,-1.2016,-1.2105,-1.2117,-1.2124,-1.2054,-1.2055,-1.2056,-1.2105,0,-1.1935,-1.1973,-1.1965,-1.2002,-1.2019,-1.2001,-1.202,-1.2026,-1.2025,-1.2039,-1.2037,-1.2054,-1.2035,-1.2039,-1.2054,-1.2054,-1.208,-1.205,-1.2071,-1.2072,-1.207,-1.2133,-1.2145,-1.2191,-1.2111,-1.2112,-1.2113,0,-1.1999,-1.2009,-1.2048,-1.2051,-1.2058,-1.2075,-1.2087,-1.21,-1.2106,-1.2104,-1.2112,-1.2102,-1.2123,-1.2099,-1.2129,-1.2109,-1.2117,-1.2118,-1.2119,-1.2122,-1.2095,-1.2137,-1.2206,-1.2213,-1.2123,-1.2122,-1.2121,0,-1.2047,-1.207,-1.2096,-1.2101,-1.2105,-1.2117,-1.212,-1.2124,-1.2133,-1.2143,-1.2149,-1.2161,-1.2168,-1.2178,-1.2171,-1.2155,-1.2202,-1.2178,-1.2201,-1.2202,-1.2213,-1.2213,-1.2284,-1.2217,-1.2217,-1.2217,-1.2217,0,-1.2103,-1.2128,-1.2118,-1.2134,-1.2161,-1.2151,-1.2178,-1.2178,-1.2182,-1.2198,-1.2183,-1.2198,-1.2188,-1.2203,-1.2197,-1.2223,-1.2226,-1.2225,-1.2223,-1.2227,-1.2227,-1.2232,-1.2229,-1.2219,-1.2218,-1.2218,-1.2218,0,-1.2162,-1.2156,-1.2184,-1.2185,-1.2185,-1.2205,-1.2206,-1.2221,-1.2218,-1.2239,-1.2243,-1.2238,-1.2254,-1.2248,-1.2266,-1.2262,-1.2295,-1.2288,-1.2293,-1.2291,-1.2315,-1.2313,-1.2393,-1.2403,-1.2329,-1.233,-1.2331,0,-1.2199,-1.2218,-1.222,-1.223,-1.2233,-1.2248,-1.2257,-1.2247,-1.2256,-1.2264,-1.2278,-1.2293,-1.2304,-1.233,-1.2329,-1.2342,-1.2336,-1.2363,-1.2338,-1.2341,-1.2337,-1.2336,-1.2338,-1.2369,-1.237,-1.237,-1.2371,0,-1.2266,-1.2262,-1.2274,-1.2286,-1.2296,-1.2305,-1.2312,-1.2321,-1.2311,-1.2322,-1.2338,-1.2347,-1.2364,-1.2379,-1.239,-1.2392,-1.238,-1.2378,-1.2385,-1.2389,-1.239,-1.239,-1.2307,-1.2377,-1.2376,-1.2376,-1.2376,-1.2375,-1.2315,-1.233,-1.2334,-1.2349,-1.2353,-1.236,-1.2374,-1.2372,-1.2385,-1.2398,-1.2391,-1.241,-1.2415,-1.2429,-1.2433,-1.2447,-1.2436,-1.2445,-1.2448,-1.245,-1.2453,-1.2387,-1.2449,-1.2449,-1.2448,-1.2448,-1.2448,0,-1.2381,-1.2382,-1.2396,-1.2406,-1.2417,-1.2404,-1.2411,-1.2421,-1.2438,-1.2443,-1.2454,-1.2472,-1.2486,-1.2485,-1.2498,-1.2509,-1.2504,-1.2513,-1.2513,-1.2513,-1.2462,-1.2456,-1.2517,-1.2517,-1.2517,-1.2517,-1.2517,-1.2517,-1.2417,-1.2442,-1.2438,-1.2465,-1.2466,-1.2484,-1.2489,-1.2496,-1.25,-1.2521,-1.2532,-1.2531,-1.2533,-1.2546,-1.2558,-1.2557,-1.2563,-1.2574,-1.2572,-1.2524,-1.2517,-1.2511,-1.2504,-1.2575,-1.2575,-1.2622,-1.2622,-1.2622]},{"header":{"parameterUnit":"m.s-1","parameterCategory":1,"la1":30.2991,"la2":30.254,"lo1":-89.0895,"lo2":-89.0444,"dy":0.0017,"dx":0.0017,"nx":28,"ny":28,"refTime":"2024-12-05T03:00:00:Z","depth":0,"parameterNumber":3,"parameterNumberName":"V-component_of_WINDS"},"data":[0,0,0,0,0,0,0,0,0,0,0,0,0,0,0,0,0,0,0,0,0,0,0,0,0,0,0,0,0,0,0,0,0,0,0,0,0,0,0,0,0,0,0,0,0,0,0,0,0,0,0,0,0,0,0,0,0,0,-5.2788,-5.2788,0,-5.2858,-5.2859,-5.286,-5.2826,-5.2825,-5.2823,-5.2821,-5.2888,-5.2891,-5.2895,0,0,0,0,0,0,0,0,0,0,0,0,0,-5.262,-5.2623,-5.2788,-5.2788,-5.2789,-5.2858,-5.2859,-5.286,-5.2827,-5.2824,-5.2822,-5.282,-5.2887,-5.2891,-5.2895,0,0,0,0,0,0,0,0,0,0,0,0,0,-5.2692,-5.2624,-5.2787,-5.2781,-5.2781,-5.2858,-5.2859,-5.286,-5.2827,-5.2824,-5.2822,-5.2819,-5.2886,-5.2891,-5.2896,-5.2981,0,0,-5.2911,-5.2914,0,0,0,0,0,0,0,0,-5.2688,-5.2698,-5.2781,-5.2782,-5.2782,-5.2831,-5.2824,-5.29,-5.2828,-5.281,-5.2821,-5.2818,-5.2871,-5.2877,-5.2896,-5.2984,-5.2987,-5.2912,-5.2915,-5.2917,-5.2919,0,0,0,0,0,0,0,-5.2683,-5.2695,-5.2815,-5.2782,-5.2783,-5.2773,-5.2781,-5.2838,-5.2854,-5.2811,-5.2809,-5.2818,-5.287,-5.2891,-5.2897,-5.2988,-5.2912,-5.2916,-5.292,-5.2922,-5.3149,-5.3152,0,0,0,0,0,0,-5.2679,-5.2691,-5.2813,-5.2817,-5.2728,-5.2779,-5.2787,-5.2818,-5.2853,-5.2856,-5.282,-5.2816,-5.2884,-5.2891,-5.2899,-5.3002,-5.2917,-5.2922,-5.2925,-5.3146,-5.315,-5.3153,0,0,0,0,0,0,-5.2675,-5.269,-5.281,-5.2754,-5.2768,-5.2784,-5.2819,-5.2821,-5.2841,-5.286,-5.2862,-5.2838,-5.2882,-5.2892,-5.2961,-5.3004,-5.2924,-5.2929,-5.3143,-5.3147,-5.3151,-5.3207,0,0,0,0,0,0,-5.267,-5.2689,-5.2722,-5.2755,-5.2771,-5.2872,-5.2822,-5.2824,-5.2851,-5.2846,-5.2878,-5.2881,-5.288,-5.2954,-5.2966,-5.3009,-5.2933,-5.3139,-5.3145,-5.315,-5.3201,-5.3213,-5.3222,0,0,0,0,0,-5.2665,-5.2734,-5.2724,-5.2739,-5.2814,-5.2875,-5.2884,-5.2884,-5.2854,-5.2887,-5.29,-5.288,-5.2997,-5.2961,-5.2975,-5.302,-5.3136,-5.3143,-5.3149,-5.3197,-5.3211,-5.3222,0,0,0,0,0,0,-5.2704,-5.2738,-5.2728,-5.281,-5.284,-5.2869,-5.2911,-5.2898,-5.2936,-5.293,-5.2926,-5.2934,-5.3006,-5.3019,-5.2979,-5.3104,-5.3062,-5.3072,-5.3093,-5.3106,-5.3117,-5.3112,-5.2937,0,0,0,0,0,-5.2723,-5.2771,-5.2797,-5.2867,-5.2883,-5.2895,-5.2921,-5.2919,-5.2949,-5.2961,-5.2978,-5.3007,-5.305,-5.3079,-5.312,-5.3203,-5.3209,-5.3241,-5.3251,-5.326,-5.3268,-5.3314,-5.3328,-5.3175,-5.3175,-5.3175,0,0,-5.2761,-5.2785,-5.2816,-5.2876,-5.2899,-5.2948,-5.2905,-5.2959,-5.2995,-5.2968,-5.3035,-5.3049,-5.3081,-5.3158,-5.3192,-5.3171,-5.3312,-5.3268,-5.3275,-5.3279,-5.3322,-5.3337,-5.335,-5.3179,-5.3178,-5.3178,0,0,-5.2856,-5.288,-5.2941,-5.2965,-5.3002,-5.3009,-5.3024,-5.3055,-5.3064,-5.3132,-5.3113,-5.3155,-5.3229,-5.3253,-5.3275,-5.338,-5.3363,-5.3393,-5.3448,-5.3493,-5.3505,-5.3515,-5.3553,-5.3567,-5.3401,-5.3402,-5.3402,0,-5.2898,-5.2973,-5.2973,-5.3029,-5.3056,-5.3036,-5.3098,-5.312,-5.3167,-5.3186,-5.3162,-5.3256,-5.3276,-5.3358,-5.3384,-5.3402,-5.3419,-5.339,-5.3503,-5.3514,-5.3524,-5.356,-5.3574,-5.3405,-5.3405,-5.3404,-5.3404,0,-5.3024,-5.3076,-5.3121,-5.3169,-5.3201,-5.3259,-5.3267,-5.3298,-5.3293,-5.3302,-5.3371,-5.3395,-5.344,-5.3459,-5.3454,-5.3541,-5.3527,-5.3504,-5.3461,-5.3542,-5.3576,-5.359,-5.341,-5.3409,-5.3408,-5.3407,0,0,-5.3145,-5.3194,-5.3211,-5.3233,-5.3272,-5.3311,-5.3368,-5.3415,-5.3442,-5.3475,-5.3522,-5.3586,-5.3565,-5.359,-5.3586,-5.3625,-5.3708,-5.3597,-5.3597,-5.3617,-5.3806,-5.3824,-5.384,-5.3697,-5.3699,-5.3701,-5.3803,0,-5.3244,-5.3346,-5.3348,-5.3441,-5.3489,-5.3471,-5.352,-5.3549,-5.3559,-5.36,-5.361,-5.3657,-5.3625,-5.364,-5.3677,-5.369,-5.3745,-5.3682,-5.3739,-5.3742,-5.3733,-5.3857,-5.3876,-5.3971,-5.3816,-5.3818,-5.382,0,-5.3372,-5.3412,-5.351,-5.3543,-5.3563,-5.3608,-5.3651,-5.3691,-5.3722,-5.3727,-5.3756,-5.3747,-5.3803,-5.3759,-5.3837,-5.3794,-5.3817,-5.3827,-5.383,-5.3836,-5.3786,-5.3866,-5.4002,-5.4016,-5.3841,-5.3839,-5.3838,0,-5.3452,-5.3529,-5.3599,-5.3618,-5.3658,-5.369,-5.3707,-5.3737,-5.3765,-5.3802,-5.382,-5.3862,-5.3885,-5.3918,-5.392,-5.3887,-5.3999,-5.3954,-5.4003,-5.4003,-5.4028,-5.4026,-5.4169,-5.4042,-5.4042,-5.4042,-5.4041,0,-5.3562,-5.3623,-5.3635,-5.3678,-5.3745,-5.3746,-5.3813,-5.3827,-5.3854,-5.3898,-5.3884,-5.3925,-5.3926,-5.3968,-5.3969,-5.4034,-5.4044,-5.4049,-5.4049,-5.405,-5.405,-5.4066,-5.4059,-5.4046,-5.4045,-5.4044,-5.4043,0,-5.3662,-5.3673,-5.3747,-5.378,-5.3789,-5.3838,-5.3865,-5.3905,-5.3914,-5.397,-5.3983,-5.3997,-5.4046,-5.4052,-5.4107,-5.4109,-5.4186,-5.4179,-5.4177,-5.4175,-5.4225,-5.422,-5.4383,-5.4405,-5.4263,-5.4265,-5.4266,0,-5.3732,-5.3779,-5.3817,-5.3847,-5.3867,-5.3914,-5.3944,-5.3946,-5.3977,-5.4017,-5.4052,-5.4099,-5.4138,-5.4216,-5.423,-5.4273,-5.4267,-5.4321,-5.4273,-5.4273,-5.4268,-5.4265,-5.427,-5.433,-5.4332,-5.4333,-5.4334,0,-5.3854,-5.3858,-5.3902,-5.3948,-5.3984,-5.402,-5.4053,-5.4078,-5.4084,-5.4119,-5.417,-5.42,-5.4258,-5.4305,-5.4348,-5.4364,-5.435,-5.4349,-5.4363,-5.4365,-5.4362,-5.4365,-5.4202,-5.4345,-5.4344,-5.4343,-5.4343,-5.4342,-5.3942,-5.3983,-5.4017,-5.4066,-5.4092,-5.4124,-5.4164,-5.4179,-5.4222,-5.4271,-5.4269,-5.4325,-5.4355,-5.4411,-5.4431,-5.4474,-5.4455,-5.4475,-5.448,-5.4485,-5.4491,-5.4355,-5.4481,-5.4481,-5.448,-5.448,-5.448,0,-5.4064,-5.4086,-5.4131,-5.418,-5.4219,-5.4204,-5.424,-5.4273,-5.4323,-5.4354,-5.4392,-5.4451,-5.4497,-5.4515,-5.456,-5.459,-5.4585,-5.4602,-5.46,-5.4604,-5.4504,-5.4488,-5.4606,-5.4606,-5.4606,-5.4606,-5.4606,-5.4606,-5.4133,-5.4202,-5.421,-5.4292,-5.4312,-5.4368,-5.439,-5.4419,-5.4444,-5.451,-5.4549,-5.4562,-5.4587,-5.4634,-5.4675,-5.4679,-5.4696,-5.4716,-5.4717,-5.4624,-5.4611,-5.4599,-5.4584,-5.472,-5.472,-5.4814,-5.4815,-5.4815]}]]